Wind_Speed
11 29 24 24 26 31 36 37 39 39 41 39 39 33 36 32 28 31 27 16 19 15 20 24 26 25 18 14 13 11 11 9 10
15 7 7 23 23 32 35 36 40 42 42 41 40 42 36 36 31 29 25 21 21 20 20 10 25 26 21 16 14 13 13 10 13
11 8 17 22 22 30 34 38 37 38 38 41 40 39 36 36 40 34 30 31 21 24 21 20 20 23 21 20 17 16 15 14 13
21 20 13 14 14 28 35 35 36 38 38 38 39 39 39 36 35 36 38 29 34 26 29 19 23 16 19 20 20 18 18 18 15
23 19 22 16 22 43 34 36 37 38 39 38 41 40 37 38 36 37 35 37 30 32 30 30 21 23 18 20 20 21 21 21 19
17 23 26 28 27 25 31 36 36 37 40 41 37 37 38 36 37 37 38 37 36 34 35 28 26 22 25 22 22 23 23 24 23
11 21 26 24 23 24 30 38 37 37 38 39 39 40 39 39 41 40 39 38 41 34 36 36 31 29 26 27 26 26 25 25 24
10 11 7 14 12 8 19 30 36 37 34 39 39 38 41 41 40 39 37 37 37 41 37 34 34 32 30 29 28 28 28 28 26
27 7 1 7 7 9 13 16 31 33 35 36 38 38 40 37 37 37 37 38 36 37 38 37 35 34 32 31 30 31 30 30 28
18 24 10 13 14 9 12 15 25 32 34 34 36 35 35 37 37 39 41 37 39 35 38 36 37 35 34 34 34 33 32 33 33
12 25 16 13 13 17 6 23 48 31 31 32 31 35 33 36 38 39 39 39 37 38 35 37 36 36 36 35 35 36 36 34 37
11 14 26 18 18 18 20 22 22 17 26 37 35 29 36 35 39 36 38 39 40 37 36 35 36 36 36 37 35 35 38 38 34
13 15 25 28 27 24 22 23 25 20 21 26 35 37 33 36 35 37 37 38 38 37 37 37 36 36 37 36 35 36 37 39 38
15 18 23 27 26 22 26 26 23 24 24 24 30 35 33 31 34 38 35 35 35 35 35 33 34 33 33 33 36 34 38 39 40
13 14 21 25 23 20 27 20 16 25 26 31 24 30 33 33 35 32 34 35 34 34 33 33 31 32 29 31 32 35 34 36 40
13 13 18 22 20 19 25 29 25 20 27 29 27 20 34 33 32 34 33 35 33 32 33 31 31 27 28 27 29 31 34 35 36
10 15 15 21 22 21 23 29 26 22 22 17 26 25 28 32 32 32 33 29 33 31 31 31 28 29 25 27 26 26 30 36 37
12 12 16 15 19 20 24 27 23 23 27 21 23 26 26 28 28 32 31 33 32 33 33 33 32 28 29 23 25 29 28 32 38
10 10 16 16 18 21 23 26 26 28 28 25 18 14 20 24 25 28 29 31 21 31 31 32 33 33 28 21 18 19 26 34 33
8 13 18 19 15 18 20 24 26 30 32 29 22 13 14 21 25 25 28 29 24 17 18 23 26 33 27 18 15 9 9 8 16
Wind_Direction
219 175 183 185 183 186 187 189 184 183 182 186 190 194 201 202 200 214 223 223 207 203 205 201 198 190 199 195 212 206 207 211 219
160 280 299 188 185 188 186 190 188 187 185 187 190 194 195 203 200 204 213 215 213 214 225 252 188 188 188 198 206 203 211 213 223
168 162 260 279 183 187 188 192 191 190 188 189 192 194 196 197 202 204 203 217 215 215 218 231 188 185 186 193 211 211 210 223 223
177 171 183 259 296 193 191 190 192 192 193 188 192 195 198 199 201 204 206 207 219 217 216 219 220 197 191 194 207 216 218 224 233
170 161 159 158 243 257 184 188 192 193 193 195 195 197 197 201 202 201 206 210 212 210 214 221 219 217 207 209 210 217 219 221 232
155 162 160 182 203 239 183 185 190 192 194 197 195 196 199 201 203 203 205 208 209 209 209 211 213 213 217 212 213 219 221 220 223
245 172 180 190 200 221 180 179 186 191 193 194 196 195 199 204 204 205 205 206 206 207 207 210 213 217 218 214 215 218 219 220 219
269 228 263 235 226 166 180 171 181 186 193 193 195 198 197 204 207 207 207 208 207 207 209 208 210 214 217 217 214 216 218 221 222
340 260 194 352 357 221 127 225 175 186 192 193 195 197 199 200 202 203 208 209 208 206 209 210 210 213 215 214 214 216 221 220 222
343 337 25 19 355 41 37 61 295 181 194 196 195 200 197 197 198 201 205 208 209 210 207 209 211 212 214 216 216 218 222 222 220
329 336 351 358 344 343 39 115 235 226 194 198 201 198 198 197 198 199 202 206 210 210 210 210 213 214 216 217 219 219 221 226 225
358 342 328 333 332 328 327 319 313 315 197 195 202 204 202 199 197 199 198 203 207 210 210 212 215 217 218 219 220 222 223 224 227
6 345 328 320 322 317 303 291 291 285 286 198 199 206 207 203 197 199 200 202 204 207 210 213 214 219 221 221 221 222 224 225 224
357 346 320 317 309 299 289 277 260 261 260 265 208 206 206 203 204 201 201 201 203 205 209 212 216 220 224 224 224 223 225 225 223
348 345 337 326 315 312 310 333 278 231 242 248 257 204 201 206 203 201 201 198 202 205 208 212 215 216 222 225 225 226 226 228 225
336 350 337 333 327 351 356 352 349 335 231 235 241 242 194 201 199 201 202 201 201 203 206 209 213 217 215 221 222 223 226 226 229
323 344 346 343 350 7 359 348 345 352 341 264 218 227 195 194 194 197 202 206 201 202 204 207 210 212 214 214 223 223 218 224 227
316 334 335 346 360 6 0 344 346 354 351 348 225 210 191 190 192 193 198 207 203 205 208 207 206 209 212 208 213 221 225 218 220
307 345 333 342 8 8 358 346 348 356 356 2 351 194 187 192 193 195 200 201 199 205 207 214 208 211 205 206 210 208 218 222 220
349 0 350 336 2 1 359 346 344 352 0 5 357 339 228 205 205 203 199 201 193 180 174 191 200 206 208 182 178 153 161 176 208
Height
705 699 710 721 730 738 748 755 764 774 782 791 799 808 813 818 823 826 829 833 835 838 840 842 845 848 852 855 859 861 863 864 865
711 720 725 716 724 733 741 748 756 763 772 783 791 798 805 812 817 822 825 829 832 834 836 839 840 845 850 853 856 859 860 862 863
700 704 728 741 720 728 734 741 750 760 767 775 784 793 799 804 810 815 820 824 827 831 834 836 841 842 845 849 853 856 858 859 860
692 696 730 734 738 722 728 737 744 751 761 769 777 784 791 798 803 810 815 819 823 826 830 832 836 840 842 845 848 852 854 856 858
672 680 705 728 732 731 718 726 735 742 751 759 767 776 784 791 797 803 808 812 816 821 825 828 831 834 838 842 845 847 849 852 854
668 685 695 701 699 711 699 711 724 731 741 749 759 769 777 784 789 794 799 804 810 814 819 823 826 829 833 837 840 843 845 847 850
658 679 689 683 685 693 683 692 709 720 730 740 749 758 766 773 778 783 789 795 801 807 811 816 820 824 827 831 834 837 840 842 845
665 664 665 664 666 670 673 681 697 710 722 730 738 746 754 759 769 778 784 789 793 799 804 809 813 818 822 825 828 831 834 836 839
692 668 667 668 670 668 675 691 692 705 714 720 729 736 743 753 763 770 776 782 787 792 798 802 806 810 814 818 821 823 827 830 833
705 686 674 679 678 681 684 683 702 698 709 717 722 728 736 743 751 759 766 774 780 784 790 796 798 802 806 809 812 816 819 823 826
712 707 694 691 690 690 700 704 713 703 706 714 716 721 727 734 741 748 757 765 770 777 783 788 792 795 797 801 803 808 812 815 819
726 723 715 704 700 697 697 695 694 700 698 703 710 713 718 723 731 739 747 754 761 768 775 780 784 787 790 792 795 799 804 809 811
732 731 726 721 712 708 704 701 697 699 697 696 699 703 707 716 724 731 738 745 752 760 767 770 776 779 782 785 788 792 795 800 804
741 734 740 733 721 712 706 700 699 696 695 692 690 696 704 710 717 723 731 740 746 752 758 764 768 772 776 779 780 783 786 791 795
745 742 739 733 726 713 703 694 690 687 687 686 688 690 695 703 709 717 725 731 738 744 750 756 760 763 767 770 772 774 778 781 786
747 747 741 737 727 711 703 698 692 682 678 681 685 687 687 695 702 710 717 723 730 736 742 746 751 755 758 760 763 766 769 772 777
748 743 738 732 723 711 707 704 699 690 682 676 677 682 683 688 695 702 710 716 722 727 732 736 740 745 747 751 755 757 759 762 766
749 743 740 737 728 717 713 712 704 693 685 675 671 673 678 684 690 696 703 709 713 717 721 725 729 732 738 741 744 746 749 751 755
748 742 739 732 724 719 719 716 708 696 689 680 675 672 675 680 684 690 696 702 706 710 715 718 723 728 730 734 734 736 739 742 744
745 740 737 734 728 726 724 719 711 702 694 686 681 678 675 678 681 685 690 695 700 705 709 712 716 721 725 727 729 732 733 735 738